COSMOS 1798

Satellite information

Favourite Embed

Satellite Type and Status

PAYLOADIN ORBIT

Key statistics

Satellite COSMOS 1798 at a glance.

Uptime

14049

Days in orbit

Revolutions

≈ 12.5

Per day

Orbit

LEO

Low Earth Orbit

Inclination

74.0

Latest

Satellite identification and parameters

Extended collection of information and parameters for COSMOS 1798.

Object identification

Identified? True

Debris? False

Object name: COSMOS 1798

International designator: 1986-092E

Object number (NORAD): 17142

Object ID (CCSDS): 17142

Country: COMMONWEALTH OF INDEPENDENT STATES (CIS)

Current information (Y/N): Y

RCS size: MEDIUM

Orbital parameters

Period: 114.881 minutes

Inclination: 74.0169 deg

SMA: 7828.159 km

Apoapsis: 1472.085 km

Periapsis: 1427.964 km

RAAN: 13.1384 deg

Eccentricy: 0.0028181

Argument of periapsis: 132.1392 deg

Mean anomaly: 291.1705 deg

Mean motion: 12.53468077 rev/day

Mean motion (dot): -0.00000008 rev/day2

B* drag term: 0.000049217 1/REarth

Two-line elements (TLE)

Creation date: May 9, 2025, 2:46 a.m.

Reference frame: TEME

Reference center: EARTH

Epoch: May 8, 2025, 4:46 p.m. UTC

TLE line 0: 0 COSMOS 1798

TLE line 1: 1 17142U 86092E 25128.69893185 -.00000008 00000-0 49217-4 0 9993

TLE line 2: 2 17142 74.0169 13.1384 0028181 132.1392 291.1705 12.53468077759970

Live tracking on map

Real-time ground track for satellite COSMOS 1798.

In-orbit conjunctions

A list of the most updated potential collisions computed for object COSMOS 1798.

Target Orbit TCA Probability of collision Miss distance Type
THORAD DELTA 1 DEB SSO 2025-01-19 13:40:37 0.0002623428 282.0 (m) DEBRIS
COSMOS 570 LEO 2024-12-31 10:40:31 0.0001674517 131.0 (m) PAYLOAD

Associated space launch

Military communications satellites

COSMOS 1798 was lifted into orbit during the mission ‘Kosmos-3M | Strela-1M 313-320’, on board a Kosmos-3M space rocket.

The launch took place on Nov. 21, 1986, 2 a.m. from 132/2.

For more information about the launch, click the button.

Launch to space Kosmos-3M | Strela-1M 313-320
Kosmos-3M | Strela-1M 313-320

Agency: N/A

Status: Launch Successful

Launch date: Nov. 21, 1986, 2 a.m. UTC

Rocket: Kosmos-3M

Launch pad: 132/2

Location: Plesetsk Cosmodrome, Russian Federation

...

Latest news about this satellite

There are no fresh news available about this satellite. Check back as we update our databases every day.


Newsletter sign-up

Weekly statistics, charts and insights to help you stay on top of the space industry.